Visibility
15.0 13.7 15.0 15.0 15.0 15.0 15.0 15.0 15.0 15.0 15.0 15.0 15.0 15.0 15.0 15.0 15.0 15.0 15.0 15.0 15.0 15.0 15.0 15.0 15.0 15.0 13.2 0.2 15.0 15.0 15.0 15.0 15.0 15.0 15.0 15.0 15.0 15.0 15.0 15.0 15.0 15.0 15.0 15.0 15.0 15.0 15.0
15.0 15.0 14.6 15.0 15.0 15.0 15.0 13.9 15.0 15.0 15.0 15.0 15.0 15.0 15.0 15.0 15.0 15.0 15.0 15.0 15.0 15.0 15.0 15.0 8.9 9.9 15.0 15.0 15.0 15.0 15.0 15.0 15.0 15.0 15.0 15.0 15.0 15.0 15.0 15.0 15.0 15.0 15.0 15.0 15.0 15.0 15.0
15.0 15.0 15.0 15.0 15.0 15.0 15.0 15.0 15.0 15.0 15.0 15.0 15.0 15.0 15.0 15.0 15.0 15.0 15.0 15.0 15.0 15.0 15.0 15.0 8.8 15.0 14.4 15.0 15.0 15.0 15.0 15.0 15.0 15.0 15.0 15.0 15.0 6.7 15.0 11.4 15.0 15.0 15.0 15.0 15.0 15.0 15.0
15.0 15.0 15.0 15.0 15.0 15.0 15.0 15.0 15.0 15.0 15.0 15.0 15.0 15.0 15.0 15.0 15.0 15.0 15.0 15.0 15.0 14.4 15.0 15.0 15.0 15.0 15.0 15.0 15.0 15.0 15.0 15.0 15.0 15.0 15.0 15.0 15.0 9.6 6.7 15.0 14.1 13.9 14.6 15.0 15.0 15.0 15.0
15.0 14.7 15.0 15.0 15.0 15.0 15.0 15.0 15.0 15.0 15.0 15.0 15.0 15.0 15.0 15.0 15.0 15.0 15.0 15.0 10.3 13.3 8.1 15.0 15.0 13.5 15.0 15.0 15.0 15.0 15.0 15.0 15.0 15.0 15.0 15.0 15.0 6.7 10.6 14.2 8.7 14.6 15.0 15.0 15.0 15.0 15.0
15.0 15.0 15.0 15.0 15.0 15.0 15.0 15.0 15.0 15.0 15.0 15.0 15.0 15.0 15.0 15.0 15.0 15.0 15.0 15.0 12.9 7.8 10.8 15.0 15.0 10.7 15.0 15.0 15.0 15.0 15.0 15.0 15.0 9.2 6.7 14.8 15.0 0.3 6.0 15.0 10.4 13.9 15.0 15.0 15.0 15.0 15.0
15.0 15.0 15.0 15.0 15.0 15.0 15.0 15.0 15.0 15.0 15.0 15.0 15.0 15.0 15.0 15.0 15.0 15.0 15.0 1.5 0.5 0.1 12.2 14.9 15.0 15.0 15.0 15.0 15.0 15.0 15.0 15.0 15.0 6.3 9.0 15.0 7.1 0.1 15.0 15.0 9.4 15.0 15.0 15.0 15.0 15.0 15.0
15.0 15.0 15.0 15.0 15.0 15.0 15.0 15.0 15.0 15.0 15.0 15.0 15.0 15.0 15.0 15.0 12.0 15.0 7.4 0.1 15.0 15.0 0.2 15.0 15.0 15.0 15.0 15.0 15.0 15.0 15.0 15.0 15.0 15.0 6.2 13.4 4.0 15.0 3.1 14.0 14.0 15.0 15.0 15.0 15.0 15.0 15.0
15.0 15.0 15.0 15.0 13.6 14.4 15.0 15.0 15.0 15.0 15.0 15.0 15.0 15.0 15.0 15.0 15.0 11.4 12.9 7.6 14.7 9.2 3.5 5.5 15.0 13.3 15.0 15.0 15.0 4.3 15.0 15.0 15.0 15.0 3.7 6.5 5.6 15.0 4.6 14.3 12.2 15.0 15.0 15.0 15.0 15.0 15.0
15.0 15.0 13.6 15.0 15.0 9.9 13.8 14.7 15.0 15.0 15.0 15.0 15.0 15.0 15.0 15.0 2.7 13.2 4.4 10.3 7.5 4.7 0.0 0.3 12.3 12.0 11.1 15.0 15.0 15.0 15.0 15.0 13.7 6.4 4.1 15.0 15.0 8.6 13.6 15.0 14.2 15.0 15.0 15.0 15.0 15.0 4.9
15.0 15.0 15.0 15.0 15.0 11.4 11.2 13.6 15.0 15.0 15.0 15.0 15.0 15.0 15.0 15.0 13.6 15.0 5.1 7.0 9.0 3.8 0.1 15.0 15.0 15.0 15.0 15.0 15.0 15.0 15.0 15.0 15.0 11.0 4.1 5.0 7.7 6.4 11.0 15.0 15.0 15.0 15.0 15.0 15.0 15.0 15.0
8.6 14.6 15.0 14.3 15.0 15.0 11.0 14.4 10.6 14.9 9.6 15.0 15.0 15.0 15.0 15.0 15.0 15.0 13.8 7.6 6.4 0.1 0.1 0.2 13.4 8.8 12.4 15.0 12.4 11.4 13.5 15.0 10.3 15.0 15.0 15.0 11.3 3.2 15.0 15.0 13.9 15.0 15.0 15.0 15.0 15.0 11.9
6.1 12.7 15.0 15.0 12.7 15.0 13.4 14.0 14.8 15.0 14.1 14.6 8.1 15.0 15.0 15.0 15.0 15.0 10.5 6.3 0.0 0.0 0.3 0.0 0.0 1.3 9.1 14.5 15.0 13.3 11.9 14.3 0.1 0.0 0.0 6.0 1.7 12.0 12.1 5.3 15.0 15.0 15.0 0.1 0.1 7.8 14.8
15.0 10.6 15.0 11.5 15.0 12.2 13.1 14.4 15.0 11.6 11.9 14.9 8.3 13.3 15.0 15.0 13.8 15.0 7.2 0.2 0.0 1.4 0.0 1.0 0.3 2.7 2.4 14.9 15.0 15.0 14.2 15.0 8.8 2.3 15.0 0.0 0.0 0.8 15.0 9.1 4.7 15.0 15.0 13.8 8.8 15.0 15.0
4.9 6.2 14.5 6.0 13.8 12.9 14.8 15.0 15.0 11.2 15.0 15.0 7.2 15.0 15.0 15.0 10.0 15.0 3.3 0.0 5.8 0.1 1.4 0.0 7.4 1.4 1.3 15.0 15.0 3.4 15.0 15.0 12.0 15.0 5.3 0.0 0.1 2.4 13.7 15.0 15.0 13.1 15.0 15.0 15.0 15.0 15.0
4.6 14.4 10.3 6.7 8.7 13.9 15.0 15.0 15.0 12.3 12.4 15.0 15.0 15.0 15.0 15.0 15.0 7.1 0.0 0.0 0.1 9.0 6.8 15.0 15.0 15.0 15.0 15.0 0.1 2.0 15.0 15.0 15.0 15.0 11.5 8.1 0.1 10.3 14.2 14.1 14.6 9.6 15.0 15.0 15.0 15.0 15.0
5.3 8.3 13.1 8.4 7.9 15.0 15.0 15.0 14.7 11.4 11.1 12.2 15.0 0.1 15.0 15.0 9.4 5.4 0.0 0.0 10.7 9.9 14.9 15.0 15.0 15.0 15.0 15.0 0.4 10.8 15.0 15.0 15.0 15.0 15.0 15.0 12.9 12.0 13.2 15.0 14.6 15.0 13.9 15.0 15.0 15.0 15.0
3.6 6.1 15.0 12.4 8.8 15.0 11.0 15.0 10.5 14.9 14.9 15.0 14.4 0.0 10.0 15.0 0.7 8.2 0.0 1.5 7.7 11.3 15.0 15.0 15.0 15.0 15.0 15.0 9.2 0.7 15.0 13.7 15.0 15.0 15.0 15.0 15.0 0.5 15.0 15.0 15.0 15.0 15.0 15.0 15.0 15.0 15.0
7.1 12.0 6.8 6.5 15.0 15.0 15.0 15.0 14.9 12.1 15.0 15.0 15.0 0.6 3.0 13.9 0.1 0.3 14.5 4.9 5.3 13.2 15.0 15.0 15.0 15.0 15.0 15.0 15.0 15.0 15.0 15.0 15.0 15.0 15.0 15.0 15.0 14.8 11.9 15.0 15.0 15.0 15.0 15.0 15.0 15.0 15.0
5.5 6.8 8.7 11.8 10.2 15.0 15.0 15.0 15.0 15.0 13.2 15.0 15.0 0.3 0.1 0.2 15.0 0.3 4.3 5.0 4.5 15.0 15.0 15.0 15.0 15.0 15.0 15.0 15.0 15.0 15.0 15.0 15.0 15.0 15.0 15.0 15.0 15.0 15.0 15.0 15.0 15.0 15.0 15.0 15.0 15.0 15.0
3.8 4.5 9.6 8.2 5.8 14.7 15.0 15.0 15.0 15.0 12.5 15.0 15.0 15.0 13.0 0.6 0.4 0.1 0.7 5.2 4.9 9.5 9.9 13.9 15.0 15.0 15.0 15.0 15.0 15.0 15.0 15.0 15.0 15.0 15.0 15.0 15.0 15.0 15.0 15.0 15.0 15.0 15.0 15.0 15.0 15.0 15.0
5.2 3.6 5.5 13.9 5.1 11.7 15.0 15.0 15.0 15.0 12.7 15.0 15.0 15.0 15.0 15.0 15.0 8.2 0.1 5.7 3.9 6.9 14.6 9.2 13.5 15.0 15.0 15.0 15.0 15.0 15.0 15.0 15.0 15.0 15.0 15.0 10.8 15.0 15.0 15.0 15.0 15.0 15.0 15.0 15.0 15.0 15.0
8.0 4.1 6.7 14.5 7.5 9.6 15.0 15.0 15.0 15.0 13.6 14.0 15.0 15.0 15.0 15.0 15.0 15.0 7.5 5.3 5.4 6.2 8.0 7.6 11.4 15.0 15.0 15.0 15.0 15.0 15.0 15.0 15.0 15.0 15.0 15.0 15.0 15.0 15.0 15.0 15.0 15.0 15.0 15.0 15.0 15.0 15.0
15.0 3.6 10.4 14.9 11.0 12.9 15.0 15.0 15.0 15.0 15.0 15.0 15.0 15.0 15.0 15.0 15.0 15.0 15.0 9.0 5.5 15.0 7.7 9.1 15.0 15.0 15.0 15.0 15.0 15.0 15.0 15.0 15.0 15.0 15.0 15.0 15.0 15.0 15.0 15.0 15.0 15.0 15.0 15.0 15.0 15.0 15.0
15.0 4.7 5.7 6.3 13.7 6.1 15.0 15.0 15.0 15.0 15.0 15.0 15.0 15.0 15.0 15.0 15.0 15.0 15.0 5.7 10.0 14.8 7.0 15.0 15.0 15.0 15.0 15.0 15.0 15.0 15.0 14.0 15.0 15.0 15.0 15.0 15.0 15.0 15.0 1.4 15.0 15.0 15.0 15.0 15.0 15.0 15.0
9.4 5.9 8.2 9.8 14.9 2.4 15.0 15.0 15.0 15.0 12.6 15.0 15.0 15.0 15.0 15.0 15.0 15.0 15.0 12.0 5.7 15.0 15.0 15.0 15.0 15.0 15.0 15.0 15.0 15.0 0.1 15.0 14.3 15.0 15.0 15.0 14.6 8.1 15.0 15.0 15.0 15.0 15.0 15.0 15.0 15.0 15.0
15.0 8.4 6.6 5.6 6.0 4.0 15.0 15.0 15.0 15.0 14.0 15.0 15.0 15.0 15.0 15.0 15.0 15.0 15.0 15.0 7.9 12.8 15.0 15.0 15.0 15.0 15.0 15.0 15.0 15.0 15.0 15.0 15.0 15.0 15.0 15.0 15.0 0.9 15.0 13.2 15.0 15.0 15.0 15.0 15.0 15.0 15.0
10.3 10.5 3.9 4.8 5.7 8.6 15.0 15.0 15.0 15.0 14.7 15.0 15.0 15.0 15.0 15.0 15.0 15.0 15.0 15.0 14.8 9.0 15.0 15.0 15.0 15.0 8.7 15.0 15.0 15.0 15.0 15.0 15.0 15.0 15.0 15.0 15.0 15.0 15.0 11.1 5.0 15.0 15.0 15.0 15.0 15.0 15.0
11.7 14.9 3.8 4.8 14.6 13.9 13.1 15.0 15.0 15.0 14.7 14.8 15.0 15.0 15.0 15.0 15.0 15.0 15.0 15.0 15.0 15.0 11.4 15.0 15.0 15.0 15.0 15.0 15.0 15.0 15.0 15.0 15.0 15.0 15.0 15.0 15.0 15.0 15.0 15.0 15.0 15.0 15.0 15.0 15.0 15.0 15.0